Weather History for Sault Ste Marie, MI

Change the Weather History Date:

Saturday, November 9, 2013

  Actual Average Record
Temperature  
Mean Temperature 37 °F 37 °F  
Max Temperature 41 °F 43 °F 67 °F (1999)
Min Temperature 33 °F 31 °F 10 °F (1995)
Degree Days  
Heating Degree Days 28 28  
Month to date heating degree days 236 241  
Since 1 July heating degree days 1154 1246  
Moisture  
Dew Point 34 °F    
Average Humidity 91    
Maximum Humidity 96    
Minimum Humidity 85    
Precipitation  
Precipitation 0.49 in 0.11 in 1.25 in (2000)
Month to date precipitation 2.01 1.00  
Year to date precipitation 41.65 27.79  
Snow  
Snow 0.50 in 0.40 in 4.50 in (1987)
Month to date snowfall 3.5 2.7  
Since 1 July snowfall 10.2 4.3  
Snow Depth 2.00 in    
Sea Level Pressure  
Sea Level Pressure 29.72 in    
Wind  
Wind Speed 10 mph (SSE)    
Max Wind Speed 18 mph    
Max Gust Speed 28 mph    
Visibility 6 miles    
Events Fog , Rain , Snow    
T = Trace of Precipitation, MM = Missing Value Source: NWS Daily Summary

Daily Weather History Graph

Daily Weather History Graph

Search for Another Location

Airport:

Trip Planner

Search our weather history database for the weather conditions in past years. The results will help you decide how hot, cold, wet, or windy it might be!

Date:

Astronomy

Nov. 09, 2013 Rise Set
Actual Time 7:30 AM EST 5:10 PM EST
Civil Twilight 6:58 AM EST 5:43 PM EST
Nautical Twilight 6:22 AM EST 6:19 PM EST
Astronomical Twilight 5:47 AM EST 6:54 PM EST
Moon 1:03 PM EST (11/9) 11:45 PM EST (11/9)
Length of Visible Light 10h 44m
Length of Day
9h 40m
Waxing Crescent, 44% of the Moon is Illuminated
Nov 9
Waxing Crescent
Nov 10
First Quarter
Nov 17
Full
Nov 25
Last Quarter
Dec 2
New

Hourly Weather History & Observations

Time (EST) Temp. Windchill Dew Point Humidity Pressure Visibility Wind Dir Wind Speed Gust Speed Precip Events Conditions
12:55 AM 34.0 °F 28.8 °F 30.0 °F 85% 30.05 in 10.0 mi SE 5.8 mph - N/A   Overcast
1:55 AM 34.0 °F 28.0 °F 30.0 °F 85% 30.04 in 10.0 mi SSE 6.9 mph - N/A   Overcast
2:47 AM 34.0 °F 27.2 °F 30.0 °F 85% 29.99 in 2.0 mi SE 8.1 mph - 0.00 in Snow Light Snow
2:55 AM 33.1 °F 25.5 °F 30.9 °F 92% 30.01 in 1.5 mi SE 9.2 mph - 0.00 in Snow Light Snow
3:18 AM 33.1 °F 26.1 °F 30.9 °F 92% 29.97 in 3.0 mi ESE 8.1 mph - 0.01 in Snow Light Snow
3:41 AM 33.1 °F 27.7 °F 30.9 °F 92% 29.94 in 2.5 mi East 5.8 mph - 0.01 in Snow Light Snow
3:52 AM 33.8 °F 27.0 °F 30.2 °F 87% 29.92 in 5.0 mi ESE 8.1 mph - 0.02 in Snow Light Snow
3:55 AM 33.1 °F 25.5 °F 30.9 °F 92% 29.94 in 6.0 mi ESE 9.2 mph - 0.02 in Snow Light Snow
4:25 AM 33.1 °F 26.1 °F 30.9 °F 92% 29.89 in 2.5 mi ESE 8.1 mph - 0.00 in Snow Light Snow
4:35 AM 33.1 °F 24.9 °F 30.9 °F 92% 29.89 in 1.5 mi ESE 10.4 mph - 0.01 in Snow Light Snow
4:50 AM 33.8 °F 25.3 °F 30.2 °F 87% 29.90 in 1.5 mi ESE 11.5 mph 17.3 mph 0.02 in Snow Light Snow
4:55 AM 33.1 °F 25.5 °F 30.9 °F 92% 29.93 in 1.2 mi ESE 9.2 mph 17.3 mph 0.02 in Snow Light Snow
5:14 AM 33.1 °F 24.9 °F 30.9 °F 92% 29.87 in 0.5 mi ESE 10.4 mph - 0.03 in Fog , Snow Snow
5:25 AM 33.1 °F 25.5 °F 30.9 °F 92% 29.86 in 0.8 mi ESE 9.2 mph - 0.06 in Snow Light Snow
5:32 AM 33.1 °F 24.9 °F 30.9 °F 92% 29.85 in 1.0 mi ESE 10.4 mph - 0.07 in Snow Light Snow
5:49 AM 33.8 °F 25.8 °F 30.2 °F 87% 29.83 in 3.0 mi East 10.4 mph 20.7 mph 0.08 in Snow Light Snow
5:55 AM 33.1 °F 26.1 °F 32.0 °F 96% 29.85 in 7.0 mi East 8.1 mph - 0.08 in Snow Light Snow
6:43 AM 34.0 °F 26.6 °F 32.0 °F 92% 29.80 in 10.0 mi ESE 9.2 mph 19.6 mph 0.00 in Rain Light Rain
6:55 AM 35.1 °F 25.9 °F 32.0 °F 89% 29.84 in 9.0 mi ESE 13.8 mph - 0.00 in Rain Light Rain
7:55 AM 35.1 °F 27.9 °F 33.1 °F 92% 29.78 in 6.0 mi SE 9.2 mph 18.4 mph 0.03 in Rain Light Rain
8:55 AM 36.0 °F 27.1 °F 34.0 °F 93% 29.79 in 6.0 mi SE 13.8 mph 21.9 mph 0.04 in Rain Light Rain
9:55 AM 36.0 °F 27.5 °F 34.0 °F 93% 29.70 in 5.0 mi SE 12.7 mph - 0.03 in Rain Light Rain
10:11 AM 37.0 °F 28.5 °F 34.0 °F 89% 29.68 in 9.0 mi ESE 13.8 mph - 0.01 in Rain Light Rain
10:20 AM 37.0 °F 28.5 °F 35.1 °F 93% 29.67 in 7.0 mi SE 13.8 mph 20.7 mph 0.01 in Rain Light Rain
10:55 AM 37.0 °F 29.3 °F 35.1 °F 93% 29.68 in 6.0 mi SE 11.5 mph 19.6 mph 0.03 in Rain Light Rain
11:47 AM 37.9 °F 30.9 °F 36.0 °F 93% 29.63 in 5.0 mi SE 10.4 mph - 0.04 in Rain Light Rain
11:55 AM 37.9 °F 30.9 °F 36.0 °F 93% 29.64 in 5.0 mi ESE 10.4 mph - 0.05 in Rain Light Rain
12:03 PM 37.9 °F 30.9 °F 36.0 °F 93% 29.62 in 5.0 mi SE 10.4 mph - 0.00 in Rain Light Rain
12:50 PM 39.2 °F 33.0 °F 35.6 °F 87% 29.59 in 6.0 mi ESE 9.2 mph - 0.03 in   Overcast
12:55 PM 39.0 °F 32.3 °F 36.0 °F 89% 29.61 in 6.0 mi ESE 10.4 mph - 0.03 in   Overcast
1:09 PM 39.0 °F 33.4 °F 36.0 °F 89% 29.59 in 7.0 mi SE 8.1 mph - N/A   Overcast
1:55 PM 39.0 °F 34.8 °F 37.0 °F 93% 29.59 in 6.0 mi SE 5.8 mph - 0.00 in   Overcast
2:17 PM 39.0 °F 34.0 °F 37.0 °F 93% 29.57 in 5.0 mi SSE 6.9 mph - N/A   Overcast
2:55 PM 39.9 °F 35.8 °F 37.9 °F 93% 29.58 in 3.0 mi SSW 5.8 mph - 0.01 in Rain Light Rain
3:24 PM 39.9 °F 35.8 °F 37.9 °F 93% 29.57 in 2.5 mi SW 5.8 mph - 0.02 in Rain Light Rain
3:32 PM 39.9 °F 34.5 °F 37.9 °F 93% 29.57 in 3.0 mi SW 8.1 mph - 0.02 in Rain Light Rain
3:42 PM 39.9 °F 33.4 °F 37.9 °F 93% 29.57 in 5.0 mi WSW 10.4 mph - 0.02 in Rain Light Rain
3:55 PM 39.9 °F 35.1 °F 37.9 °F 93% 29.59 in 4.0 mi WSW 6.9 mph - 0.03 in Rain Light Rain
4:11 PM 41.0 °F 35.2 °F 37.9 °F 89% 29.58 in 5.0 mi WSW 9.2 mph - 0.01 in Rain Light Rain
4:48 PM 39.9 °F 33.9 °F 37.9 °F 93% 29.59 in 5.0 mi West 9.2 mph 19.6 mph 0.02 in Rain Light Rain
4:55 PM 39.9 °F 34.5 °F 37.9 °F 93% 29.61 in 6.0 mi WSW 8.1 mph - 0.02 in Rain Light Rain
5:07 PM 39.9 °F 33.9 °F 37.9 °F 93% 29.59 in 6.0 mi WSW 9.2 mph - 0.01 in Rain Light Rain
5:37 PM 39.9 °F 32.9 °F 37.0 °F 89% 29.60 in 8.0 mi West 11.5 mph 19.6 mph 0.02 in Rain Light Rain
5:55 PM 39.9 °F 32.9 °F 37.0 °F 89% 29.62 in 8.0 mi WSW 11.5 mph 20.7 mph 0.03 in Rain Light Rain
6:55 PM 39.0 °F 31.0 °F 36.0 °F 89% 29.64 in 10.0 mi WSW 13.8 mph 19.6 mph 0.01 in Rain Light Rain
7:08 PM 39.0 °F 31.0 °F 36.0 °F 89% 29.62 in 9.0 mi WSW 13.8 mph 21.9 mph 0.01 in Rain Light Rain
7:24 PM 39.0 °F 30.3 °F 36.0 °F 89% 29.62 in 10.0 mi WSW 16.1 mph 21.9 mph 0.01 in Rain Light Rain
7:55 PM 37.9 °F 29.6 °F 36.0 °F 93% 29.64 in 10.0 mi WSW 13.8 mph - 0.01 in Rain Light Rain
8:22 PM 37.9 °F 30.0 °F 35.1 °F 89% 29.63 in 10.0 mi WSW 12.7 mph 21.9 mph 0.01 in Rain Light Rain
8:38 PM 37.9 °F 29.2 °F 35.1 °F 89% 29.63 in 10.0 mi WSW 15.0 mph 20.7 mph 0.01 in Rain Light Rain
8:55 PM 37.9 °F 30.0 °F 35.1 °F 89% 29.65 in 10.0 mi West 12.7 mph 20.7 mph 0.02 in Rain Light Rain
9:55 PM 37.9 °F 30.0 °F 35.1 °F 89% 29.65 in 10.0 mi WSW 12.7 mph - 0.01 in Rain Light Rain
10:55 PM 37.0 °F 28.9 °F 35.1 °F 93% 29.64 in 10.0 mi WSW 12.7 mph - 0.00 in Rain Light Rain
11:39 PM 37.9 °F 29.2 °F 35.1 °F 89% 29.62 in 9.0 mi WSW 15.0 mph 20.7 mph 0.01 in Rain Light Rain
11:47 PM 37.9 °F 28.9 °F 35.1 °F 89% 29.62 in 7.0 mi West 16.1 mph 27.6 mph 0.01 in Rain Light Rain
11:55 PM 37.9 °F 28.9 °F 35.1 °F 89% 29.63 in 7.0 mi West 16.1 mph 24.2 mph 0.02 in Rain Light Rain